This demonstration page uses our WeatherBlox Daily Observations layout. Learn more.

Left ArrowRight Arrow

38.20091, -84.87328

Hourly Observations for July 5, 2020

Temp ( °F °C ) Dew Point ( °F °C ) Humidity (%) Winds ( mph kmh ) Pressure ( in mb ) Visibility ( mi km ) Precip ( " mm )
12:53 am 00:53 Clear 73 22.8 67 19.4 81 81 Calm 29.93 1014 7 11 0.00 0.00
1:53 am 01:53 Hazy 71 21.7 66 18.9 84 84 Calm 29.92 1013 6 10 0.00 0.00
2:53 am 02:53 Clear with Mist and Fog 70 21.1 66 18.9 87 87 NNW 5 7 29.92 1013 5 8 0.00 0.00
3:53 am 03:53 Clear with Mist and Fog 69 20.6 66 18.9 90 90 Calm 29.92 1013 4 6 0.00 0.00
4:53 am 04:53 Clear with Mist and Fog 68 20 65 18.3 90 90 Calm 29.92 1013 4 6 0.00 0.00
5:53 am 05:53 Clear with Mist and Fog 68 20 65 18.3 90 90 Calm 29.93 1014 4 6 0.00 0.00
6:53 am 06:53 Sunny with Mist and Fog 68 20 65 18.3 90 90 Calm 29.94 1014 3 5 0.00 0.00
7:53 am 07:53 Hazy 73 22.8 67 19.4 81 81 Calm 29.95 1014 5 8 0.00 0.00
8:53 am 08:53 Sunny 80 26.7 68 20 67 67 Calm 29.96 1015 8 13 0.00 0.00
9:53 am 09:53 Sunny 85 29.4 68 20 57 57 ENE 3 6 29.97 1015 10 16 0.00 0.00
10:53 am 10:53 Sunny 89 31.7 70 21.1 53 53 Calm 29.97 1015 10 16 0.00 0.00
11:53 am 11:53 Mostly Sunny 89 31.7 69 20.6 52 52 Calm 29.97 1015 10 16 0.00 0.00
12:53 pm 12:53 Mostly Sunny 92 33.3 68 20 46 46 undefined N/A 29.96 1014 10 16 0.00 0.00
1:53 pm 13:53 Partly Cloudy 94 34.4 66 18.9 40 40 ESE 6 9 29.94 1014 10 16 0.00 0.00
2:53 pm 14:53 Mostly Cloudy 93 33.9 65 18.3 40 40 undefined N/A 29.93 1013 10 16 0.00 0.00
3:53 pm 15:53 Mostly Cloudy 94 34.4 67 19.4 41 41 SW 3 6 29.91 1013 10 16 0.00 0.00
4:53 pm 16:53 Mostly Cloudy 93 33.9 66 18.9 41 41 VRB 5 7 29.89 1012 10 16 0.00 0.00
5:53 pm 17:53 Mostly Cloudy 94 34.4 67 19.4 41 41 ENE 13 20 29.88 1012 10 16 0.00 0.00
6:53 pm 18:53 Mostly Cloudy 89 31.7 68 20 50 50 ESE 6 9 29.88 1012 10 16 0.00 0.00
7:53 pm 19:53 Mostly Sunny 89 31.7 68 20 50 50 E 3 6 29.90 1013 10 16 0.00 0.00
8:34 pm 20:34 Mostly Cloudy with Nearby Thunderstorms 83 28.3 71 21.7 67 67 SW 10 17 29.90 1012 10 16 0.00 0.00
8:53 pm 20:53 Mostly Cloudy with Thunderstorms 82 27.8 70 21.1 67 67 SSW 12 19 29.93 1014 10 16 0.00 0.00
9:27 pm 21:27 Partly Cloudy 80 26.7 67 19.4 64 64 WSW 9 15 29.92 1013 10 16 0.00 0.00
9:53 pm 21:53 Mostly Cloudy 77 25 68 20 74 74 WSW 6 9 29.93 1014 10 16 0.00 0.00
10:10 pm 22:10 Partly Cloudy with Nearby Thunderstorms 77 25 68 20 74 74 SW 7 11 29.95 1014 10 16 0.00 0.00
10:53 pm 22:53 Partly Cloudy 77 25 68 20 74 74 SSE 7 11 29.96 1015 10 16 0.00 0.00
11:53 pm 23:53 Mostly Clear 77 25 68 20 74 74 Calm 29.95 1014 10 16 0.00 0.00

Powered by AerisWeather